contact:dominique.lefevre@mio.osupytheas.fr, maurice.libes@osupytheas.fr, didier.mallarino@osupytheas.fr
Project:EMSO http://www.emso-fr.org/EMSO-France
Depth: 2436.0 m
Title:EMSO Ligure Ouest : Data MII capteur AQUADOPP
Date,Latitude,Longitude,X_East,Y_North,Z_Up,Amplitude_X,Amplitude_Y,Amplitude_Z,Batterie,SoundSpeed,Heading,Pitch,Roll,Pressure,TIS,Speed,Direction
, degrees North, degrees East, m.s-1, m.s-1,m.s-1, 1, 1, 1, Volt, m.s-1, degree, degree, degree, dbar, degree_C, m.s-1, degree
2022-05-01T01:04:02,42.805,6.029,0.016,0.019,0.056,103.0,104.0,102.0,13.4,1505.1,331.1,-0.8,1.8,2471.018,13.27,0.024,40.1
2022-05-01T01:07:03,42.805,6.029,0.033,0.0,0.012,102.0,103.0,102.0,13.4,1505.1,329.4,-0.8,1.8,2470.923,13.27,0.033,90.0
2022-05-01T01:10:03,42.805,6.029,0.025,-0.025,-0.016,100.0,104.0,100.0,13.3,1505.2,324.1,-0.7,1.8,2470.908,13.28,0.035,135.0
2022-05-01T01:13:03,42.805,6.029,0.022,-0.01,0.025,102.0,100.0,100.0,13.3,1505.2,331.6,-0.7,1.8,2470.861,13.28,0.024,114.4
2022-05-01T01:16:03,42.805,6.029,0.022,-0.008,-0.014,101.0,103.0,100.0,13.3,1505.2,331.9,-0.7,1.8,2470.827,13.28,0.023,110.0
2022-05-01T01:19:03,42.805,6.029,0.016,0.015,0.009,100.0,102.0,100.0,13.4,1505.2,327.1,-0.8,1.8,2470.84,13.28,0.021,46.9
2022-05-01T01:22:03,42.805,6.029,0.038,0.0,-0.001,101.0,103.0,100.0,13.4,1505.2,323.5,-0.8,1.8,2470.806,13.28,0.038,90.0
2022-05-01T01:25:03,42.805,6.029,0.027,0.01,-0.02,100.0,104.0,99.0,13.4,1505.2,330.1,-0.8,1.8,2470.756,13.28,0.028,69.7
2022-05-01T01:28:03,42.805,6.029,0.045,0.006,-0.004,101.0,103.0,100.0,13.4,1505.2,325.3,-0.8,1.8,2470.734,13.28,0.045,82.4
2022-05-01T01:31:03,42.805,6.029,0.035,-0.024,-0.001,99.0,104.0,100.0,13.4,1505.2,330.0,-0.7,1.8,2470.679,13.28,0.042,124.4
2022-05-01T01:34:03,42.805,6.029,0.027,-0.006,0.005,100.0,103.0,99.0,13.4,1505.2,330.2,-0.7,1.8,2470.642,13.28,0.027,102.5
2022-05-01T01:37:03,42.805,6.029,0.014,-0.003,0.015,101.0,102.0,100.0,13.4,1505.2,331.4,-0.8,1.8,2470.589,13.28,0.014,102.1
2022-05-01T01:40:03,42.805,6.029,0.036,-0.007,0.023,100.0,103.0,101.0,13.4,1505.2,329.5,-0.7,1.9,2470.562,13.28,0.036,101.0
2022-05-01T01:43:03,42.805,6.029,0.024,0.0,0.012,102.0,102.0,99.0,13.4,1505.2,325.3,-0.7,1.8,2470.574,13.28,0.024,90.0
2022-05-01T01:46:03,42.805,6.029,0.007,-0.009,-0.025,101.0,102.0,99.0,13.4,1505.2,328.4,-0.7,1.8,2470.571,13.28,0.011,142.1
2022-05-01T01:49:03,42.805,6.029,0.018,-0.024,0.013,100.0,102.0,100.0,13.3,1505.2,327.3,-0.7,1.8,2470.574,13.28,0.03,143.1
2022-05-01T01:52:03,42.805,6.029,0.043,-0.001,0.014,101.0,101.0,100.0,13.3,1505.2,322.5,-0.7,1.8,2470.574,13.28,0.043,91.3
2022-05-01T01:55:03,42.805,6.029,0.024,-0.009,0.0,102.0,101.0,99.0,13.4,1505.2,324.5,-0.7,1.8,2470.571,13.28,0.025,110.6
2022-05-01T01:58:03,42.805,6.029,0.046,-0.01,-0.002,101.0,102.0,99.0,13.4,1505.2,329.9,-0.8,1.8,2470.593,13.28,0.047,102.3
2022-05-01T02:04:03,42.805,6.029,0.028,0.014,0.023,101.0,103.0,100.0,13.4,1505.2,322.1,-0.7,1.8,2470.633,13.28,0.031,63.4
2022-05-01T02:07:03,42.805,6.029,0.024,0.011,0.02,99.0,103.0,100.0,13.3,1505.2,330.7,-0.8,1.8,2470.632,13.28,0.026,65.4
2022-05-01T02:10:03,42.805,6.029,0.03,-0.035,0.028,100.0,101.0,100.0,13.4,1505.2,329.7,-0.7,1.8,2470.69,13.28,0.046,139.4
2022-05-01T02:13:03,42.805,6.029,0.017,-0.004,0.006,102.0,101.0,100.0,13.4,1505.2,329.8,-0.8,1.8,2470.619,13.28,0.017,103.2
2022-05-01T02:16:03,42.805,6.029,0.033,0.0,0.007,101.0,104.0,100.0,13.4,1505.2,332.4,-0.7,1.8,2470.663,13.28,0.033,90.0
2022-05-01T02:19:03,42.805,6.029,0.031,-0.019,-0.02,101.0,102.0,99.0,13.3,1505.2,328.3,-0.8,1.8,2470.662,13.28,0.036,121.5
2022-05-01T02:22:03,42.805,6.029,0.03,0.008,-0.002,100.0,104.0,100.0,13.4,1505.2,329.7,-0.7,1.8,2470.719,13.28,0.031,75.1
2022-05-01T02:25:03,42.805,6.029,0.022,-0.003,-0.003,99.0,103.0,100.0,13.4,1505.2,325.8,-0.8,1.8,2470.656,13.28,0.022,97.8
2022-05-01T02:28:03,42.805,6.029,0.023,-0.011,0.013,102.0,101.0,99.0,13.4,1505.2,332.8,-0.8,1.8,2470.684,13.28,0.025,115.6
2022-05-01T02:31:03,42.805,6.029,0.038,0.002,0.03,101.0,101.0,100.0,13.4,1505.2,327.3,-0.8,1.8,2470.69,13.28,0.038,87.0
2022-05-01T02:34:03,42.805,6.029,0.046,-0.023,-0.024,100.0,102.0,99.0,13.4,1505.2,332.2,-0.7,1.8,2470.668,13.28,0.051,116.6
2022-05-01T02:37:03,42.805,6.029,0.012,0.019,0.004,101.0,102.0,100.0,13.3,1505.2,322.1,-0.8,1.8,2470.657,13.28,0.022,32.3
2022-05-01T02:40:03,42.805,6.029,0.021,0.013,0.044,99.0,104.0,99.0,13.4,1505.2,321.5,-0.8,1.8,2470.686,13.28,0.024,58.2
2022-05-01T02:43:03,42.805,6.029,0.034,0.007,0.01,101.0,102.0,100.0,13.4,1505.2,322.4,-0.8,1.8,2470.666,13.28,0.034,78.4
2022-05-01T02:46:03,42.805,6.029,0.007,0.0,-0.018,100.0,101.0,100.0,13.4,1505.2,322.5,-0.7,1.8,2470.69,13.28,0.007,90.0
2022-05-01T02:49:03,42.805,6.029,0.009,-0.003,0.016,99.0,102.0,102.0,13.4,1505.2,332.3,-0.8,1.8,2470.672,13.28,0.009,108.4
2022-05-01T02:52:03,42.805,6.029,0.026,-0.005,-0.018,99.0,102.0,101.0,13.3,1505.2,328.9,-0.8,1.8,2470.703,13.28,0.026,100.9
2022-05-01T02:55:03,42.805,6.029,0.041,0.02,0.011,101.0,103.0,99.0,13.3,1505.2,327.7,-0.7,1.8,2470.711,13.28,0.045,64.0
2022-05-01T02:58:03,42.805,6.029,0.017,-0.011,-0.037,100.0,102.0,100.0,13.3,1505.2,330.0,-0.8,1.8,2470.724,13.28,0.02,122.9
2022-05-01T03:04:03,42.805,6.029,0.038,-0.013,-0.009,101.0,101.0,99.0,13.4,1505.2,321.9,-0.8,1.8,2470.702,13.28,0.04,108.9
2022-05-01T03:07:03,42.805,6.029,0.047,0.005,0.018,100.0,103.0,100.0,13.3,1505.2,324.7,-0.7,1.8,2470.744,13.28,0.047,83.9
2022-05-01T03:10:03,42.805,6.029,0.034,-0.012,-0.016,99.0,105.0,100.0,13.4,1505.2,328.7,-0.7,1.8,2470.714,13.28,0.036,109.4
2022-05-01T03:13:03,42.805,6.029,0.035,0.006,-0.037,99.0,103.0,100.0,13.4,1505.2,327.6,-0.8,1.8,2470.732,13.28,0.035,80.3
2022-05-01T03:16:03,42.805,6.029,0.027,0.017,0.009,101.0,101.0,100.0,13.4,1505.2,323.7,-0.8,1.8,2470.661,13.28,0.031,57.8
2022-05-01T03:19:03,42.805,6.029,0.057,0.014,0.012,101.0,103.0,100.0,13.3,1505.2,328.7,-0.8,1.8,2470.704,13.28,0.058,76.2
2022-05-01T03:22:03,42.805,6.029,0.004,-0.029,-0.037,102.0,102.0,99.0,13.4,1505.2,325.1,-0.7,1.8,2470.722,13.28,0.029,172.2
2022-05-01T03:25:03,42.805,6.029,0.058,-0.006,0.009,100.0,101.0,100.0,13.4,1505.2,329.9,-0.8,1.8,2470.761,13.28,0.058,95.9
2022-05-01T03:28:03,42.805,6.029,0.047,-0.021,0.003,101.0,102.0,100.0,13.4,1505.2,332.4,-0.7,1.8,2470.727,13.28,0.051,114.1
2022-05-01T03:31:03,42.805,6.029,0.031,-0.005,0.009,101.0,102.0,100.0,13.4,1505.2,328.5,-0.8,1.8,2470.708,13.28,0.031,99.2
2022-05-01T03:34:03,42.805,6.029,0.032,0.004,-0.002,101.0,104.0,99.0,13.4,1505.2,323.8,-0.7,1.8,2470.772,13.28,0.032,82.9
2022-05-01T03:37:03,42.805,6.029,0.028,-0.002,-0.006,101.0,101.0,100.0,13.3,1505.2,329.3,-0.7,1.9,2470.743,13.28,0.028,94.1
2022-05-01T03:40:03,42.805,6.029,0.069,-0.038,-0.014,100.0,103.0,100.0,13.3,1505.2,323.9,-0.7,1.8,2470.722,13.28,0.078,118.8
2022-05-01T03:43:03,42.805,6.029,0.021,0.003,-0.005,102.0,102.0,99.0,13.4,1505.2,327.4,-0.7,1.8,2470.718,13.28,0.021,81.9
2022-05-01T03:46:03,42.805,6.029,0.032,-0.022,-0.006,100.0,102.0,100.0,13.3,1505.2,330.3,-0.8,1.8,2470.708,13.28,0.038,124.5
2022-05-01T03:49:03,42.805,6.029,0.043,-0.004,0.019,102.0,102.0,99.0,13.3,1505.2,331.8,-0.8,1.8,2470.706,13.28,0.043,95.3
2022-05-01T03:52:03,42.805,6.029,0.024,-0.014,-0.019,100.0,103.0,100.0,13.4,1505.2,327.0,-0.8,1.8,2470.754,13.28,0.027,120.3
2022-05-01T03:55:03,42.805,6.029,0.032,-0.018,-0.012,102.0,101.0,99.0,13.4,1505.2,324.0,-0.7,1.8,2470.731,13.28,0.036,119.4
2022-05-01T03:58:03,42.805,6.029,0.038,-0.006,-0.007,102.0,103.0,99.0,13.3,1505.2,325.9,-0.7,1.8,2470.764,13.28,0.038,99.0
2022-05-01T04:04:03,42.805,6.029,0.031,0.016,0.034,102.0,102.0,99.0,13.4,1505.2,328.1,-0.7,1.8,2470.791,13.28,0.034,62.7
2022-05-01T04:07:03,42.805,6.029,0.024,-0.002,-0.011,101.0,102.0,99.0,13.3,1505.2,321.5,-0.8,1.8,2470.713,13.28,0.024,94.8
2022-05-01T04:10:03,42.805,6.029,0.031,0.017,0.024,100.0,102.0,100.0,13.4,1505.2,322.5,-0.8,1.8,2470.715,13.28,0.035,61.3
2022-05-01T04:13:03,42.805,6.029,0.019,0.0,-0.011,101.0,102.0,100.0,13.4,1505.2,326.2,-0.7,1.8,2470.751,13.28,0.019,90.0
2022-05-01T04:16:03,42.805,6.029,0.036,0.008,0.015,101.0,102.0,99.0,13.4,1505.2,331.5,-0.7,1.8,2470.722,13.28,0.036,77.5
2022-05-01T04:19:03,42.805,6.029,0.002,0.002,-0.013,98.0,103.0,101.0,13.4,1505.2,327.9,-0.8,1.8,2470.76,13.28,0.002,45.0
2022-05-01T04:22:03,42.805,6.029,0.029,-0.016,0.008,99.0,104.0,99.0,13.3,1505.2,331.4,-0.8,1.8,2470.759,13.28,0.033,118.9
2022-05-01T04:25:03,42.805,6.029,0.023,-0.001,-0.021,100.0,102.0,99.0,13.4,1505.2,322.4,-0.8,1.8,2470.737,13.28,0.023,92.5
2022-05-01T04:28:03,42.805,6.029,0.041,-0.015,-0.026,100.0,101.0,100.0,13.4,1505.2,328.7,-0.7,1.8,2470.744,13.28,0.043,110.1
2022-05-01T04:31:03,42.805,6.029,0.024,-0.009,0.006,101.0,103.0,100.0,13.4,1505.2,328.9,-0.7,1.8,2470.8,13.28,0.025,110.6
2022-05-01T04:34:03,42.805,6.029,0.05,-0.012,0.006,101.0,102.0,99.0,13.4,1505.2,330.9,-0.8,1.8,2470.768,13.28,0.051,103.5
2022-05-01T04:37:03,42.805,6.029,0.021,-0.013,0.014,101.0,102.0,99.0,13.4,1505.2,330.0,-0.8,1.8,2470.741,13.28,0.024,121.8
2022-05-01T04:40:03,42.805,6.029,0.015,0.001,0.0,100.0,103.0,100.0,13.4,1505.2,325.0,-0.7,1.8,2470.746,13.28,0.015,86.2
2022-05-01T04:43:03,42.805,6.029,0.025,-0.027,-0.028,100.0,101.0,100.0,13.3,1505.2,329.4,-0.8,1.8,2470.671,13.28,0.036,137.2
2022-05-01T04:46:03,42.805,6.029,0.04,-0.017,0.0,101.0,103.0,100.0,13.4,1505.2,322.3,-0.7,1.8,2470.656,13.28,0.043,113.0
2022-05-01T04:49:03,42.805,6.029,0.015,-0.005,-0.004,100.0,103.0,99.0,13.4,1505.2,321.6,-0.8,1.8,2470.686,13.28,0.015,108.4
2022-05-01T04:52:03,42.805,6.029,0.015,-0.009,-0.044,99.0,103.0,100.0,13.3,1505.2,329.7,-0.7,1.8,2470.659,13.28,0.017,121.0
2022-05-01T04:55:03,42.805,6.029,0.003,0.005,-0.012,100.0,103.0,100.0,13.3,1505.2,331.7,-0.7,1.8,2470.667,13.28,0.005,31.0
2022-05-01T04:58:03,42.805,6.029,0.025,0.026,0.032,100.0,103.0,100.0,13.4,1505.2,323.6,-0.7,1.8,2470.673,13.28,0.036,43.9
2022-05-01T05:04:03,42.805,6.029,0.026,0.009,0.021,101.0,102.0,99.0,13.4,1505.2,326.4,-0.7,1.8,2470.759,13.28,0.027,70.9
2022-05-01T05:07:03,42.805,6.029,0.04,-0.014,-0.021,100.0,103.0,99.0,13.4,1505.2,331.2,-0.8,1.8,2470.734,13.28,0.042,109.3
2022-05-01T05:10:03,42.805,6.029,0.024,0.042,0.056,100.0,104.0,100.0,13.4,1505.2,323.2,-0.8,1.8,2470.785,13.28,0.048,29.7
2022-05-01T05:13:03,42.805,6.029,0.033,0.006,0.035,102.0,101.0,101.0,13.4,1505.2,330.1,-0.8,1.8,2470.714,13.28,0.033,79.7
2022-05-01T05:16:03,42.805,6.029,0.015,0.009,0.012,99.0,104.0,100.0,13.4,1505.2,326.3,-0.7,1.8,2470.791,13.28,0.017,59.0
2022-05-01T05:19:03,42.805,6.029,0.022,0.009,0.018,102.0,101.0,99.0,13.4,1505.2,329.3,-0.8,1.8,2470.803,13.28,0.023,67.8
2022-05-01T05:22:03,42.805,6.029,0.03,0.004,0.049,100.0,103.0,101.0,13.4,1505.2,332.6,-0.7,1.8,2470.807,13.28,0.03,82.4
2022-05-01T05:25:03,42.805,6.029,0.009,0.023,0.036,101.0,103.0,99.0,13.4,1505.2,327.0,-0.7,1.8,2470.811,13.28,0.024,21.4
2022-05-01T05:28:03,42.805,6.029,0.021,0.016,0.039,100.0,103.0,100.0,13.4,1505.2,325.3,-0.7,1.8,2470.821,13.28,0.026,52.7
2022-05-01T05:31:03,42.805,6.029,0.06,-0.002,0.011,101.0,104.0,99.0,13.4,1505.2,331.7,-0.8,1.8,2470.855,13.28,0.06,91.9
2022-05-01T05:34:03,42.805,6.029,0.038,0.028,0.018,102.0,102.0,99.0,13.4,1505.2,327.0,-0.8,1.8,2470.843,13.28,0.047,53.6
2022-05-01T05:37:03,42.805,6.029,0.041,-0.017,0.0,99.0,103.0,101.0,13.4,1505.2,331.6,-0.8,1.8,2470.83,13.28,0.044,112.5
2022-05-01T05:40:03,42.805,6.029,0.046,-0.017,-0.018,101.0,104.0,99.0,13.3,1505.2,331.0,-0.8,1.8,2470.82,13.28,0.049,110.3
2022-05-01T05:43:03,42.805,6.029,0.019,0.006,0.009,103.0,101.0,99.0,13.4,1505.2,326.3,-0.8,1.8,2470.731,13.28,0.019,72.5
2022-05-01T05:46:03,42.805,6.029,0.021,0.008,0.01,101.0,102.0,100.0,13.4,1505.2,331.2,-0.7,1.8,2470.765,13.28,0.022,69.1
2022-05-01T05:49:03,42.805,6.029,0.037,0.012,0.011,100.0,102.0,100.0,13.4,1505.2,328.7,-0.8,1.8,2470.734,13.28,0.038,72.0
2022-05-01T05:52:03,42.805,6.029,0.012,0.003,0.033,100.0,102.0,100.0,13.4,1505.2,328.9,-0.8,1.8,2470.723,13.28,0.012,76.0
2022-05-01T05:55:03,42.805,6.029,0.021,0.0,0.006,102.0,103.0,100.0,13.4,1505.2,330.0,-0.8,1.8,2470.715,13.28,0.021,90.0
2022-05-01T05:58:03,42.805,6.029,0.048,-0.014,0.001,100.0,103.0,100.0,13.4,1505.2,327.0,-0.7,1.8,2470.747,13.28,0.05,106.3
2022-05-01T06:04:03,42.805,6.029,0.024,0.008,-0.018,100.0,103.0,101.0,13.4,1505.2,331.0,-0.7,1.8,2470.753,13.28,0.025,71.6
2022-05-01T06:07:03,42.805,6.029,0.03,0.005,0.032,101.0,103.0,99.0,13.4,1505.2,327.6,-0.8,1.8,2470.782,13.28,0.03,80.5
2022-05-01T06:10:03,42.805,6.029,0.009,-0.03,-0.034,101.0,102.0,99.0,13.4,1505.2,327.4,-0.8,1.8,2470.82,13.28,0.031,163.3
2022-05-01T06:13:03,42.805,6.029,-0.006,-0.01,-0.031,100.0,103.0,100.0,13.4,1505.2,329.5,-0.8,1.9,2470.822,13.28,0.011,211.0
2022-05-01T06:16:03,42.805,6.029,0.023,0.015,0.037,101.0,103.0,100.0,13.3,1505.2,326.9,-0.8,1.8,2470.79,13.28,0.027,56.9
2022-05-01T06:19:03,42.805,6.029,0.046,0.0,0.015,102.0,102.0,100.0,13.3,1505.2,323.7,-0.7,1.8,2470.774,13.28,0.046,90.0
2022-05-01T06:22:03,42.805,6.029,0.033,0.009,0.008,99.0,103.0,100.0,13.4,1505.2,327.4,-0.7,1.8,2470.814,13.28,0.034,74.7
2022-05-01T06:25:03,42.805,6.029,0.051,-0.011,0.001,100.0,103.0,99.0,13.4,1505.2,331.4,-0.8,1.8,2470.821,13.28,0.052,102.2
2022-05-01T06:28:03,42.805,6.029,0.002,-0.019,-0.021,100.0,105.0,99.0,13.4,1505.2,323.6,-0.7,1.8,2470.824,13.28,0.019,174.0
2022-05-01T06:31:03,42.805,6.029,0.034,0.0,0.011,101.0,101.0,100.0,13.4,1505.2,324.5,-0.8,1.8,2470.815,13.28,0.034,90.0
2022-05-01T06:34:03,42.805,6.029,0.024,0.011,0.009,101.0,101.0,99.0,13.3,1505.2,327.5,-0.8,1.8,2470.845,13.28,0.026,65.4
2022-05-01T06:37:03,42.805,6.029,0.009,0.008,0.0,100.0,104.0,99.0,13.3,1505.2,324.6,-0.8,1.8,2470.896,13.28,0.012,48.4
2022-05-01T06:40:03,42.805,6.029,0.014,-0.001,0.019,99.0,102.0,101.0,13.4,1505.2,325.9,-0.8,1.9,2470.853,13.28,0.014,94.1
2022-05-01T06:43:03,42.805,6.029,0.014,-0.006,-0.025,100.0,103.0,99.0,13.3,1505.2,323.8,-0.8,1.9,2470.881,13.28,0.015,113.2
2022-05-01T06:46:03,42.805,6.029,0.019,-0.002,0.002,100.0,104.0,99.0,13.3,1505.2,323.0,-0.7,1.8,2470.867,13.28,0.019,96.0
2022-05-01T06:49:03,42.805,6.029,0.027,-0.004,-0.009,102.0,100.0,99.0,13.3,1505.2,329.6,-0.8,1.8,2470.835,13.28,0.027,98.4
2022-05-01T06:52:03,42.805,6.029,0.057,-0.023,-0.052,99.0,103.0,100.0,13.4,1505.2,324.4,-0.8,1.8,2470.896,13.28,0.061,112.0
2022-05-01T06:55:03,42.805,6.029,0.021,0.002,-0.023,102.0,102.0,101.0,13.4,1505.2,332.4,-0.7,1.8,2470.869,13.28,0.021,84.6
2022-05-01T06:58:03,42.805,6.029,0.038,-0.004,0.004,101.0,102.0,100.0,13.4,1505.2,322.1,-0.7,1.8,2470.873,13.28,0.038,96.0
2022-05-01T07:04:02,42.805,6.029,0.052,-0.036,-0.018,100.0,103.0,99.0,13.4,1505.2,328.5,-0.8,1.8,2470.841,13.28,0.063,124.7
2022-05-01T07:07:03,42.805,6.029,0.052,0.015,0.019,101.0,103.0,99.0,13.4,1505.2,324.6,-0.7,1.8,2470.823,13.28,0.054,73.9
2022-05-01T07:10:03,42.805,6.029,0.027,0.01,0.014,100.0,102.0,100.0,13.4,1505.2,329.0,-0.8,1.8,2470.841,13.28,0.028,69.7
2022-05-01T07:13:03,42.805,6.029,0.027,-0.005,0.02,101.0,102.0,99.0,13.4,1505.2,322.3,-0.8,1.8,2470.764,13.28,0.027,100.5
2022-05-01T07:16:03,42.805,6.029,0.031,-0.001,-0.004,101.0,102.0,100.0,13.4,1505.2,325.4,-0.8,1.8,2470.807,13.28,0.031,91.8
2022-05-01T07:19:03,42.805,6.029,0.023,0.004,0.016,100.0,103.0,100.0,13.3,1505.2,328.8,-0.7,1.8,2470.773,13.28,0.023,80.1
2022-05-01T07:22:03,42.805,6.029,0.023,-0.017,0.005,101.0,101.0,99.0,13.4,1505.2,328.6,-0.7,1.8,2470.763,13.28,0.028,126.5
2022-05-01T07:25:03,42.805,6.029,0.011,-0.007,0.005,103.0,102.0,99.0,13.4,1505.2,322.2,-0.7,1.9,2470.768,13.28,0.013,122.5
2022-05-01T07:28:03,42.805,6.029,0.023,-0.009,-0.001,101.0,103.0,100.0,13.4,1505.2,323.8,-0.8,1.8,2470.708,13.28,0.024,111.4
2022-05-01T07:31:03,42.805,6.029,0.016,-0.006,0.004,101.0,101.0,99.0,13.4,1505.2,330.6,-0.8,1.8,2470.671,13.28,0.017,110.6
2022-05-01T07:34:03,42.805,6.029,0.024,0.004,0.026,100.0,102.0,100.0,13.4,1505.2,321.9,-0.7,1.8,2470.686,13.28,0.024,80.5
2022-05-01T07:37:03,42.805,6.029,0.009,-0.003,0.006,100.0,102.0,100.0,13.4,1505.2,325.9,-0.7,1.8,2470.724,13.28,0.009,108.4
2022-05-01T07:40:03,42.805,6.029,0.005,0.009,-0.015,101.0,102.0,100.0,13.4,1505.2,331.2,-0.8,1.8,2470.722,13.28,0.01,29.1
2022-05-01T07:43:03,42.805,6.029,0.03,-0.008,0.008,101.0,103.0,99.0,13.4,1505.2,323.4,-0.8,1.8,2470.713,13.28,0.031,104.9
2022-05-01T07:46:03,42.805,6.029,0.017,0.0,-0.006,101.0,100.0,101.0,13.3,1505.2,322.3,-0.7,1.8,2470.732,13.28,0.017,90.0
2022-05-01T07:49:03,42.805,6.029,0.013,-0.002,0.008,99.0,105.0,100.0,13.4,1505.2,330.1,-0.7,1.8,2470.727,13.28,0.013,98.7
2022-05-01T07:52:03,42.805,6.029,0.016,-0.017,0.0,101.0,101.0,100.0,13.3,1505.2,331.7,-0.7,1.8,2470.725,13.28,0.023,136.7
2022-05-01T07:55:03,42.805,6.029,0.04,-0.016,-0.025,101.0,102.0,100.0,13.4,1505.2,325.7,-0.8,1.8,2470.727,13.28,0.043,111.8
2022-05-01T07:58:03,42.805,6.029,0.003,0.005,-0.01,101.0,101.0,100.0,13.4,1505.2,329.9,-0.7,1.8,2470.727,13.28,0.005,31.0
2022-05-01T08:04:03,42.805,6.029,0.017,0.02,0.017,100.0,103.0,99.0,13.4,1505.2,323.0,-0.8,1.8,2470.758,13.28,0.026,40.4
2022-05-01T08:07:03,42.805,6.029,0.044,0.003,0.023,101.0,101.0,99.0,13.4,1505.2,324.5,-0.8,1.9,2470.789,13.28,0.044,86.1
2022-05-01T08:10:03,42.805,6.029,0.032,0.004,0.014,101.0,101.0,100.0,13.3,1505.2,326.4,-0.8,1.8,2470.77,13.28,0.032,82.9
2022-05-01T08:13:03,42.805,6.029,0.037,-0.002,-0.005,100.0,102.0,101.0,13.4,1505.2,323.8,-0.8,1.8,2470.822,13.28,0.037,93.1
2022-05-01T08:16:03,42.805,6.029,0.023,0.007,0.044,101.0,101.0,100.0,13.4,1505.2,331.4,-0.8,1.8,2470.803,13.28,0.024,73.1
2022-05-01T08:19:03,42.805,6.029,0.028,0.009,0.02,102.0,103.0,99.0,13.4,1505.2,330.6,-0.7,1.8,2470.78,13.28,0.029,72.2
2022-05-01T08:22:03,42.805,6.029,0.043,-0.03,-0.016,101.0,103.0,100.0,13.4,1505.2,331.3,-0.7,1.8,2470.794,13.28,0.052,124.9
2022-05-01T08:25:03,42.805,6.029,0.022,-0.012,0.0,100.0,102.0,100.0,13.4,1505.2,324.3,-0.8,1.9,2470.8,13.28,0.025,118.6
2022-05-01T08:28:03,42.805,6.029,0.047,-0.007,0.009,101.0,101.0,101.0,13.4,1505.2,329.9,-0.8,1.8,2470.748,13.28,0.047,98.5
2022-05-01T08:31:03,42.805,6.029,0.024,-0.002,-0.001,101.0,102.0,100.0,13.4,1505.2,329.8,-0.8,1.8,2470.736,13.28,0.024,94.8
2022-05-01T08:34:03,42.805,6.029,-0.024,-0.006,-0.029,101.0,102.0,100.0,13.4,1505.2,327.7,-0.7,1.9,2470.743,13.28,0.024,256.0
2022-05-01T08:37:03,42.805,6.029,0.022,-0.002,-0.004,101.0,102.0,100.0,13.4,1505.2,329.4,-0.7,1.8,2470.707,13.28,0.022,95.2
2022-05-01T08:40:03,42.805,6.029,0.018,0.003,-0.032,100.0,102.0,100.0,13.4,1505.2,321.2,-0.8,1.8,2470.672,13.28,0.018,80.5
2022-05-01T08:43:03,42.805,6.029,0.036,-0.008,-0.007,103.0,102.0,100.0,13.3,1505.2,325.7,-0.7,1.8,2470.708,13.28,0.036,102.5
2022-05-01T08:46:03,42.805,6.029,0.037,0.002,0.027,100.0,103.0,100.0,13.3,1505.2,331.0,-0.7,1.8,2470.668,13.28,0.037,86.9
2022-05-01T08:49:03,42.805,6.029,0.014,-0.003,-0.015,100.0,102.0,100.0,13.4,1505.2,325.9,-0.8,1.8,2470.678,13.28,0.014,102.1
2022-05-01T08:52:03,42.805,6.029,0.04,-0.001,0.0,100.0,102.0,100.0,13.3,1505.2,324.6,-0.8,1.8,2470.716,13.28,0.04,91.4
2022-05-01T08:55:03,42.805,6.029,0.029,-0.014,-0.006,100.0,101.0,100.0,13.4,1505.2,325.8,-0.7,1.8,2470.714,13.28,0.032,115.8
2022-05-01T08:58:03,42.805,6.029,0.016,0.007,0.029,101.0,102.0,100.0,13.3,1505.2,329.3,-0.7,1.8,2470.7,13.28,0.017,66.4
2022-05-01T09:04:03,42.805,6.029,0.031,0.019,0.025,101.0,103.0,100.0,13.4,1505.2,330.8,-0.8,1.8,2470.757,13.28,0.036,58.5
2022-05-01T09:07:03,42.805,6.029,0.045,-0.033,-0.013,101.0,102.0,100.0,13.4,1505.2,328.3,-0.8,1.8,2470.733,13.28,0.055,126.3
2022-05-01T09:10:03,42.805,6.029,0.046,-0.007,0.013,100.0,102.0,101.0,13.4,1505.2,331.3,-0.8,1.8,2470.768,13.28,0.046,98.7
2022-05-01T09:13:03,42.805,6.029,0.024,-0.005,-0.002,101.0,102.0,100.0,13.4,1505.2,328.5,-0.8,1.8,2470.759,13.28,0.024,101.8
2022-05-01T09:16:03,42.805,6.029,0.035,-0.021,0.022,101.0,102.0,100.0,13.4,1505.2,325.3,-0.7,1.8,2470.763,13.28,0.04,121.0
2022-05-01T09:19:03,42.805,6.029,0.03,-0.021,-0.004,100.0,104.0,100.0,13.4,1505.2,330.3,-0.8,1.8,2470.766,13.28,0.036,125.0
2022-05-01T09:22:03,42.805,6.029,0.006,0.008,-0.002,103.0,99.0,100.0,13.4,1505.2,321.9,-0.7,1.8,2470.791,13.28,0.01,36.9
2022-05-01T09:25:03,42.805,6.029,0.037,-0.012,-0.031,101.0,101.0,101.0,13.4,1505.2,322.2,-0.8,1.8,2470.772,13.28,0.038,108.0
2022-05-01T09:28:03,42.805,6.029,0.033,-0.009,-0.016,102.0,103.0,100.0,13.3,1505.2,322.2,-0.8,1.8,2470.819,13.28,0.034,105.3
2022-05-01T09:31:03,42.805,6.029,0.028,0.0,-0.001,100.0,104.0,99.0,13.4,1505.2,321.8,-0.8,1.8,2470.803,13.28,0.028,90.0
2022-05-01T09:34:03,42.805,6.029,0.036,0.008,0.024,102.0,100.0,100.0,13.3,1505.2,328.0,-0.8,1.8,2470.819,13.28,0.036,77.5
2022-05-01T09:37:03,42.805,6.029,0.013,-0.016,-0.006,101.0,102.0,100.0,13.4,1505.2,324.1,-0.7,1.8,2470.814,13.28,0.02,140.9
2022-05-01T09:40:03,42.805,6.029,0.023,0.005,-0.026,101.0,102.0,100.0,13.4,1505.2,322.5,-0.8,1.8,2470.79,13.28,0.023,77.7
2022-05-01T09:43:03,42.805,6.029,0.014,-0.01,-0.019,100.0,104.0,99.0,13.3,1505.2,331.6,-0.8,1.8,2470.838,13.28,0.017,125.5
2022-05-01T09:46:03,42.805,6.029,0.013,0.0,-0.004,101.0,103.0,100.0,13.4,1505.2,328.4,-0.8,1.8,2470.849,13.28,0.013,90.0
2022-05-01T09:49:03,42.805,6.029,0.037,0.002,-0.013,103.0,101.0,100.0,13.3,1505.2,322.2,-0.7,1.8,2470.81,13.28,0.037,86.9
2022-05-01T09:52:03,42.805,6.029,0.038,-0.025,-0.033,104.0,103.0,99.0,13.4,1505.2,328.2,-0.8,1.8,2470.804,13.28,0.045,123.3
2022-05-01T09:55:03,42.805,6.029,0.024,0.0,-0.013,100.0,103.0,101.0,13.4,1505.2,324.7,-0.8,1.8,2470.806,13.28,0.024,90.0
2022-05-01T09:58:03,42.805,6.029,0.018,-0.003,-0.02,101.0,102.0,99.0,13.4,1505.2,328.8,-0.8,1.8,2470.78,13.28,0.018,99.5
2022-05-01T10:04:03,42.805,6.029,0.03,-0.003,0.015,101.0,102.0,100.0,13.4,1505.2,328.8,-0.8,1.8,2470.818,13.28,0.03,95.7
2022-05-01T10:07:03,42.805,6.029,0.034,-0.003,0.002,100.0,102.0,100.0,13.4,1505.2,326.5,-0.8,1.8,2470.76,13.28,0.034,95.0
2022-05-01T10:10:03,42.805,6.029,0.05,0.011,-0.002,100.0,102.0,100.0,13.3,1505.2,326.6,-0.8,1.8,2470.748,13.28,0.051,77.6
2022-05-01T10:13:03,42.805,6.029,0.04,0.01,0.026,101.0,102.0,99.0,13.4,1505.2,328.6,-0.8,1.8,2470.8,13.28,0.041,76.0
2022-05-01T10:16:03,42.805,6.029,0.024,0.009,0.014,100.0,102.0,101.0,13.4,1505.2,323.8,-0.7,1.8,2470.768,13.28,0.025,69.4
2022-05-01T10:19:03,42.805,6.029,0.039,-0.011,-0.015,100.0,103.0,99.0,13.4,1505.2,331.3,-0.8,1.8,2470.767,13.28,0.04,105.7
2022-05-01T10:22:03,42.805,6.029,0.041,-0.006,-0.017,99.0,101.0,101.0,13.3,1505.2,325.4,-0.8,1.8,2470.718,13.28,0.041,98.3
2022-05-01T10:25:03,42.805,6.029,0.009,-0.003,0.006,103.0,100.0,100.0,13.4,1505.2,326.9,-0.8,1.8,2470.747,13.28,0.009,108.4
2022-05-01T10:28:03,42.805,6.029,0.023,-0.007,-0.02,99.0,104.0,99.0,13.4,1505.2,326.0,-0.8,1.8,2470.782,13.28,0.024,106.9
2022-05-01T10:31:03,42.805,6.029,0.034,-0.002,0.02,102.0,101.0,100.0,13.4,1505.2,332.6,-0.7,1.8,2470.72,13.28,0.034,93.4
2022-05-01T10:34:03,42.805,6.029,0.031,-0.017,-0.009,101.0,102.0,99.0,13.4,1505.2,323.7,-0.8,1.8,2470.712,13.28,0.035,118.7
2022-05-01T10:37:03,42.805,6.029,0.032,0.004,-0.02,100.0,102.0,100.0,13.3,1505.2,330.8,-0.8,1.8,2470.723,13.28,0.032,82.9
2022-05-01T10:40:03,42.805,6.029,0.016,0.005,0.019,102.0,102.0,100.0,13.4,1505.2,328.5,-0.8,1.8,2470.684,13.28,0.016,72.6
2022-05-01T10:43:03,42.805,6.029,0.015,0.019,0.017,102.0,102.0,99.0,13.3,1505.2,324.6,-0.7,1.8,2470.727,13.28,0.024,38.3
2022-05-01T10:46:03,42.805,6.029,0.037,-0.023,-0.015,100.0,101.0,101.0,13.4,1505.2,328.8,-0.7,1.8,2470.715,13.28,0.043,121.9
2022-05-01T10:49:03,42.805,6.029,0.017,0.01,-0.017,100.0,101.0,101.0,13.4,1505.2,328.4,-0.8,1.8,2470.672,13.28,0.019,59.5
2022-05-01T10:52:03,42.805,6.029,0.027,-0.009,0.018,100.0,102.0,100.0,13.4,1505.2,329.5,-0.8,1.8,2470.674,13.28,0.028,108.4
2022-05-01T10:55:03,42.805,6.029,0.044,-0.013,0.021,103.0,101.0,99.0,13.4,1505.2,327.2,-0.8,1.8,2470.616,13.28,0.045,106.5
2022-05-01T10:58:03,42.805,6.029,0.031,-0.007,0.005,102.0,101.0,99.0,13.3,1505.2,326.0,-0.7,1.8,2470.595,13.28,0.031,102.7
2022-05-01T11:04:03,42.805,6.029,0.013,0.003,-0.021,101.0,102.0,100.0,13.3,1505.2,329.2,-0.8,1.8,2470.545,13.28,0.013,77.0
2022-05-01T11:07:03,42.805,6.029,0.046,0.004,0.03,100.0,103.0,101.0,13.4,1505.2,322.0,-0.8,1.8,2470.554,13.28,0.046,85.0